Location: Serpukhov
(54.9240°N, 37.4330°E)
Time: 02:46:02
(UTC+03:00)

ISS - Visible Passes

Search period start: 24 September 2017 00:00
Search period end: 04 October 2017 00:00
Orbit: 401 x 407 km, 51.6° (Epoch: 24 September)

Date Brightness Start Highest point End Pass type
(mag) Time Alt. Az. Time Alt. Az. Time Alt. Az.
26 Sep -1.3 19:57:05 10° S 19:57:12 10° S 19:57:12 10° S visible
27 Sep -1.3 20:39:29 10° SW 20:40:04 14° SSW 20:40:04 14° SSW visible
28 Sep -2.3 19:47:38 10° SSW 19:50:05 21° SSE 19:50:05 21° SSE visible
29 Sep -1.8 18:56:04 10° S 18:58:02 15° SSE 18:59:58 10° ESE visible
29 Sep -2.2 20:30:50 10° SW 20:32:38 26° SSW 20:32:38 26° SSW visible
30 Sep -2.8 19:38:44 10° SW 19:41:39 30° SSE 19:42:24 27° SE visible
30 Sep -0.9 21:14:36 10° WSW 21:15:03 13° WSW 21:15:03 13° WSW visible
01 Oct -2.3 18:46:46 10° SSW 18:49:26 23° SSE 18:52:06 10° E visible
01 Oct -2.8 20:22:18 10° WSW 20:24:44 37° SSW 20:24:44 37° SSW visible
02 Oct -3.1 19:30:03 10° WSW 19:33:09 40° SSE 19:34:22 27° ESE visible
02 Oct -1.1 21:06:10 10° W 21:07:01 16° WSW 21:07:01 16° WSW visible
03 Oct -2.8 18:37:52 10° SW 18:40:51 32° SSE 18:43:50 10° E visible
03 Oct -3.1 20:13:49 10° WSW 20:16:35 44° SSW 20:16:35 44° SSW visible
